Weather History for Sheridan, WY

Change the Weather History Date:

Tuesday, October 1, 2013

  Actual Average Record
Temperature  
Mean Temperature 52 °F 51 °F  
Max Temperature 68 °F 66 °F 93 °F (2011)
Min Temperature 35 °F 36 °F 22 °F (1985)
Degree Days  
Heating Degree Days 13 14  
Month to date heating degree days 13 14  
Since 1 July heating degree days 168 317  
Cooling Degree Days 0 0  
Month to date cooling degree days 0 0  
Year to date cooling degree days 592 418  
Growing Degree Days 2 (Base 50)    
Moisture  
Dew Point 36 °F    
Average Humidity 60    
Maximum Humidity 85    
Minimum Humidity 34    
Precipitation  
Precipitation 0.00 in 0.06 in 1.20 in (1989)
Month to date precipitation 0.00 0.06  
Year to date precipitation 14.25 11.54  
Sea Level Pressure  
Sea Level Pressure 29.91 in    
Wind  
Wind Speed 7 mph (SSW)    
Max Wind Speed 10 mph    
Max Gust Speed 12 mph    
Visibility 10 miles    
Events      
T = Trace of Precipitation, MM = Missing Value Source: NWS Daily Summary

Daily Weather History Graph

Daily Weather History Graph

Search for Another Location

Airport:

Trip Planner

Search our weather history database for the weather conditions in past years. The results will help you decide how hot, cold, wet, or windy it might be!

Date:

Astronomy

Oct. 01, 2013 Rise Set
Actual Time 7:06 AM MDT 6:47 PM MDT
Civil Twilight 6:37 AM MDT 7:16 PM MDT
Nautical Twilight 6:03 AM MDT 7:50 PM MDT
Astronomical Twilight 5:28 AM MDT 8:25 PM MDT
Moon 3:36 AM MDT (10/1) 4:58 PM MDT (10/1)
Length of Visible Light 12h 39m
Length of Day
11h 41m
Waning Crescent, 11% of the Moon is Illuminated
Oct 1
Waning Crescent
Oct 4
New
Oct 11
First Quarter
Oct 18
Full
Oct 26
Last Quarter

Hourly Weather History & Observations

Time (MDT) Temp. Windchill Dew Point Humidity Pressure Visibility Wind Dir Wind Speed Gust Speed Precip Events Conditions
12:53 AM 41.0 °F 37.1 °F 36.0 °F 82% 29.86 in 10.0 mi SSW 5.8 mph - N/A   Clear
1:53 AM 41.0 °F 38.0 °F 34.0 °F 76% 29.89 in 10.0 mi SSW 4.6 mph - N/A   Clear
2:53 AM 41.0 °F 37.1 °F 33.1 °F 73% 29.93 in 10.0 mi WSW 5.8 mph - N/A   Clear
3:53 AM 37.0 °F 32.4 °F 30.9 °F 79% 29.96 in 10.0 mi SSW 5.8 mph - N/A   Clear
4:53 AM 39.0 °F 34.8 °F 30.0 °F 70% 29.97 in 10.0 mi SSW 5.8 mph - N/A   Clear
5:53 AM 39.0 °F 34.8 °F 33.1 °F 79% 29.99 in 10.0 mi SSW 5.8 mph - N/A   Clear
6:53 AM 37.9 °F - 33.1 °F 83% 30.00 in 10.0 mi Calm Calm - N/A   Clear
7:53 AM 39.9 °F 37.8 °F 35.1 °F 83% 30.00 in 10.0 mi Variable 3.5 mph - N/A   Clear
8:53 AM 50.0 °F - 39.9 °F 68% 29.98 in 10.0 mi East 10.4 mph - N/A   Clear
9:53 AM 55.0 °F - 37.9 °F 53% 29.96 in 10.0 mi ESE 15.0 mph 20.7 mph N/A   Clear
10:53 AM 57.9 °F - 32.0 °F 37% 29.95 in 10.0 mi SE 21.9 mph 28.8 mph N/A   Clear
11:53 AM 60.1 °F - 34.0 °F 38% 29.92 in 10.0 mi SE 16.1 mph 24.2 mph N/A   Clear
12:53 PM 62.1 °F - 37.0 °F 39% 29.89 in 10.0 mi SE 12.7 mph 19.6 mph N/A   Clear
1:53 PM 64.0 °F - 36.0 °F 35% 29.86 in 10.0 mi East 5.8 mph - N/A   Clear
2:53 PM 68.0 °F - 39.0 °F 35% 29.83 in 10.0 mi NE 5.8 mph - N/A   Clear
3:53 PM 66.9 °F - 39.0 °F 36% 29.84 in 10.0 mi NNW 6.9 mph - N/A   Clear
4:53 PM 66.9 °F - 39.0 °F 36% 29.83 in 10.0 mi NNW 4.6 mph - N/A   Clear
5:53 PM 62.1 °F - 43.0 °F 50% 29.84 in 10.0 mi NW 4.6 mph - N/A   Clear
6:53 PM 52.0 °F - 39.9 °F 63% 29.88 in 10.0 mi WNW 6.9 mph - N/A   Clear
7:53 PM 50.0 °F - 39.0 °F 66% 29.90 in 10.0 mi Calm Calm - N/A   Clear
8:53 PM 51.1 °F - 39.0 °F 63% 29.89 in 10.0 mi Calm Calm - N/A   Clear
9:53 PM 46.9 °F - 39.9 °F 77% 29.90 in 10.0 mi Calm Calm - N/A   Clear
10:53 PM 51.1 °F - 37.0 °F 59% 29.89 in 10.0 mi WNW 11.5 mph - N/A   Partly Cloudy
11:53 PM 50.0 °F - 36.0 °F 59% 29.89 in 10.0 mi WNW 10.4 mph - N/A   Partly Cloudy